Location: Unspecified
(0.0000°N, 0.0000°E)
Time: 01:50:15
(UTC+00:00)

Courier 1B Rocket - Pass Details

Date: 25 November 2019
Orbit: 920 x 1202 km, 28.2° (Epoch: 10 December)

Event Time Altitude Azimuth Distance (km) Brightness Sun altitude
Rises 06:21:54 0° 218° (SW) 3,688 7.8 8.2°
Reaches altitude 10° 06:25:15 10° 204° (SSW) 2,696 7.3 9.0°
Maximum altitude 06:30:08 22° 154° (SSE) 1,910 7.4 10.1°
Drops below altitude 10° 06:34:53 10° 104° (ESE) 2,612 10.1 11.2°
Sets 06:38:03 0° 90° (E) 3,545 9.4 12.0°
